Weather History for Heber, UT

Change the Weather History Date:

Saturday, March 30, 2013

  Actual Average (KPVU) Record (KPVU)
Temperature  
Mean Temperature 44 °F -  
Max Temperature 64 °F 54 °F 77 °F (1986)
Min Temperature 24 °F 33 °F 21 °F (1987)
Degree Days  
Heating Degree Days 21    
Moisture  
Dew Point 26 °F    
Average Humidity 57    
Maximum Humidity 93    
Minimum Humidity 19    
Precipitation  
Precipitation 0.00 in - - ()
Sea Level Pressure  
Sea Level Pressure 30.20 in    
Wind  
Wind Speed 2 mph (NW)    
Max Wind Speed 18 mph    
Max Gust Speed 26 mph    
Visibility 10 miles    
Events Thunderstorm    
Averages and records for this station are not official NWS values.
T = Trace of Precipitation, MM = Missing Value Source: NWS Daily Summary

Daily Weather History Graph

Daily Weather History Graph

Search for Another Location

Airport:

Trip Planner

Search our weather history database for the weather conditions in past years. The results will help you decide how hot, cold, wet, or windy it might be!

Date:

Astronomy

Mar. 30, 2013 Rise Set
Actual Time 7:12 AM MDT 7:48 PM MDT
Civil Twilight 6:44 AM MDT 8:16 PM MDT
Nautical Twilight 6:12 AM MDT 8:48 PM MDT
Astronomical Twilight 5:39 AM MDT 9:22 PM MDT
Moon No Moon Rise 9:09 AM MDT (3/30)
Length of Visible Light 13h 31m
Length of Day
12h 36m
Waning Gibbous, 86% of the Moon is Illuminated
Mar 30
Waning Gibbous
Apr 2
Last Quarter
Apr 10
New
Apr 18
First Quarter
Apr 25
Full

Hourly Weather History & Observations

Time (MDT) Temp. Windchill Dew Point Humidity Pressure Visibility Wind Dir Wind Speed Gust Speed Precip Events Conditions
12:35 AM 32.0 °F - 28.4 °F 87% 30.23 in 10.0 mi Calm Calm - N/A   Clear
12:55 AM 33.8 °F - 28.4 °F 81% 30.23 in 10.0 mi Calm Calm - N/A   Clear
1:15 AM 32.0 °F - 28.4 °F 87% 30.23 in 10.0 mi Calm Calm - N/A   Clear
1:35 AM 32.0 °F - 26.6 °F 80% 30.23 in 10.0 mi Calm Calm - N/A   Clear
1:55 AM 30.2 °F - 26.6 °F 86% 30.23 in 10.0 mi Calm Calm - N/A Thunderstorm Thunderstorm
2:15 AM 32.0 °F 26.4 °F 28.4 °F 87% 30.23 in 10.0 mi East 5.8 mph - N/A   Clear
2:35 AM 32.0 °F - 26.6 °F 80% 30.23 in 10.0 mi Calm Calm - N/A   Clear
2:55 AM 32.0 °F - 26.6 °F 80% 30.23 in 10.0 mi Calm Calm - N/A   Clear
3:15 AM 32.0 °F - 28.4 °F 87% 30.24 in 10.0 mi Calm Calm - N/A   Clear
3:35 AM 32.0 °F - 28.4 °F 87% 30.24 in 10.0 mi Calm Calm - N/A   Clear
3:55 AM 32.0 °F - 26.6 °F 80% 30.24 in 10.0 mi Calm Calm - N/A   Clear
4:15 AM 30.2 °F - 26.6 °F 86% 30.24 in 10.0 mi Calm Calm - N/A   Clear
4:35 AM 30.2 °F - 26.6 °F 86% 30.24 in 10.0 mi Calm Calm - N/A   Clear
4:55 AM 32.0 °F - 28.4 °F 87% 30.24 in 10.0 mi Calm Calm - N/A   Clear
5:15 AM 32.0 °F - 28.4 °F 87% 30.24 in 10.0 mi Calm Calm - N/A   Scattered Clouds
5:35 AM 32.0 °F - 28.4 °F 87% 30.24 in 10.0 mi Calm Calm - N/A   Scattered Clouds
5:55 AM 28.4 °F - 24.8 °F 86% 30.23 in 10.0 mi Calm Calm - N/A   Scattered Clouds
6:15 AM 28.4 °F - 26.6 °F 93% 30.23 in 10.0 mi Calm Calm - N/A   Clear
6:35 AM 26.6 °F - 23.0 °F 86% 30.24 in 10.0 mi Calm Calm - N/A   Clear
6:55 AM 26.6 °F - 23.0 °F 86% 30.24 in 10.0 mi Calm Calm - N/A   Clear
7:15 AM 26.6 °F - 23.0 °F 86% 30.24 in 10.0 mi Calm Calm - N/A   Clear
7:35 AM 24.8 °F - 21.2 °F 86% 30.25 in 10.0 mi Calm Calm - N/A   Clear
7:55 AM 28.4 °F - 26.6 °F 93% 30.25 in 10.0 mi Calm Calm - N/A   Clear
8:15 AM 32.0 °F 28.7 °F 28.4 °F 87% 30.25 in 10.0 mi ESE 3.5 mph - N/A   Clear
8:35 AM 33.8 °F - 32.0 °F 93% 30.25 in 10.0 mi Calm Calm - N/A   Clear
8:55 AM 35.6 °F - 30.2 °F 81% 30.25 in 10.0 mi Calm Calm - N/A   Clear
9:15 AM 37.4 °F - 30.2 °F 75% 30.25 in 10.0 mi Calm Calm - N/A   Clear
9:35 AM 39.2 °F - 32.0 °F 75% 30.24 in 10.0 mi Calm Calm - N/A Thunderstorm Thunderstorm
9:55 AM 41.0 °F - 30.2 °F 65% 30.24 in 10.0 mi Calm Calm - N/A Thunderstorm Thunderstorm
10:15 AM 42.8 °F - 30.2 °F 61% 30.24 in 10.0 mi Calm Calm - N/A Thunderstorm Thunderstorm
10:35 AM 46.4 °F - 30.2 °F 53% 30.23 in 10.0 mi Calm Calm - N/A   Scattered Clouds
10:55 AM 50.0 °F - 32.0 °F 50% 30.22 in 10.0 mi Calm Calm - N/A   Scattered Clouds
11:15 AM 50.0 °F - 32.0 °F 50% 30.22 in 10.0 mi Calm Calm - N/A   Scattered Clouds
11:35 AM 50.0 °F - 30.2 °F 47% 30.22 in 10.0 mi Calm Calm - N/A   Scattered Clouds
11:55 AM 53.6 °F - 30.2 °F 41% 30.21 in 10.0 mi Calm Calm - N/A   Clear
12:15 PM 55.4 °F - 32.0 °F 41% 30.21 in 10.0 mi Calm Calm - N/A   Clear
12:35 PM 55.4 °F - 32.0 °F 41% 30.21 in 10.0 mi Calm Calm - N/A   Scattered Clouds
12:55 PM 57.2 °F - 30.2 °F 36% 30.20 in 10.0 mi Calm Calm - N/A   Scattered Clouds
1:15 PM 59.0 °F - 28.4 °F 31% 30.20 in 10.0 mi Calm Calm - N/A   Scattered Clouds
1:35 PM 62.6 °F - 26.6 °F 26% 30.19 in 10.0 mi West 18.4 mph 23.0 mph N/A   Scattered Clouds
1:55 PM 62.6 °F - 24.8 °F 24% 30.19 in 10.0 mi West 17.3 mph 26.5 mph N/A   Mostly Cloudy
2:15 PM 62.6 °F - 23.0 °F 22% 30.18 in 10.0 mi West 12.7 mph 24.2 mph N/A   Scattered Clouds
2:35 PM 64.4 °F - 21.2 °F 19% 30.18 in 10.0 mi West 13.8 mph 24.2 mph N/A   Clear
2:55 PM 62.6 °F - 23.0 °F 22% 30.18 in 10.0 mi NW 12.7 mph 25.3 mph N/A   Clear
3:15 PM 62.6 °F - 23.0 °F 22% 30.17 in 10.0 mi NNW 11.5 mph - N/A   Clear
3:35 PM 64.4 °F - 23.0 °F 21% 30.17 in 10.0 mi NW 11.5 mph 17.3 mph N/A   Clear
3:55 PM 62.6 °F - 21.2 °F 20% 30.17 in 10.0 mi NNW 6.9 mph 17.3 mph N/A   Clear
4:15 PM 62.6 °F - 21.2 °F 20% 30.16 in 10.0 mi NW 12.7 mph - N/A   Clear
4:35 PM 62.6 °F - 21.2 °F 20% 30.15 in 10.0 mi NW 8.1 mph 12.7 mph N/A   Clear
4:55 PM 62.6 °F - 21.2 °F 20% 30.16 in 10.0 mi NW 9.2 mph - N/A   Clear
5:15 PM 62.6 °F - 21.2 °F 20% 30.15 in 10.0 mi WNW 11.5 mph - N/A   Clear
5:35 PM 62.6 °F - 19.4 °F 19% 30.15 in 10.0 mi NW 8.1 mph - N/A   Clear
5:55 PM 60.8 °F - 19.4 °F 20% 30.14 in 10.0 mi WNW 9.2 mph - N/A   Clear
6:15 PM 60.8 °F - 19.4 °F 20% 30.14 in 10.0 mi NW 4.6 mph - N/A   Clear
6:35 PM 60.8 °F - 19.4 °F 20% 30.14 in 10.0 mi North 3.5 mph - N/A   Clear
6:55 PM 59.0 °F - 21.2 °F 23% 30.15 in 10.0 mi NNW 8.1 mph - N/A   Clear
7:15 PM 57.2 °F - 23.0 °F 27% 30.15 in 10.0 mi North 8.1 mph - N/A   Clear
7:35 PM 53.6 °F - 23.0 °F 30% 30.15 in 10.0 mi NNW 6.9 mph - N/A   Clear
7:55 PM 50.0 °F - 23.0 °F 35% 30.15 in 10.0 mi NNW 4.6 mph - N/A   Clear
8:15 PM 46.4 °F - 21.2 °F 37% 30.15 in 10.0 mi Calm Calm - N/A   Clear
8:35 PM 48.2 °F - 21.2 °F 34% 30.16 in 10.0 mi Calm Calm - N/A   Clear
8:55 PM 41.0 °F 37.1 °F 23.0 °F 49% 30.16 in 10.0 mi ESE 5.8 mph - N/A   Clear
9:35 PM 37.4 °F 32.8 °F 26.6 °F 65% 30.17 in 10.0 mi ESE 5.8 mph - N/A   Clear
9:55 PM 42.8 °F - 24.8 °F 49% 30.18 in 10.0 mi Calm Calm - N/A   Clear
10:15 PM 41.0 °F - 24.8 °F 53% 30.18 in 10.0 mi Calm Calm - N/A   Clear
10:35 PM 35.6 °F - 24.8 °F 65% 30.18 in 10.0 mi Calm Calm - N/A   Clear
10:55 PM 33.8 °F - 26.6 °F 75% 30.19 in 10.0 mi Calm Calm - N/A   Clear
11:15 PM 33.8 °F 28.6 °F 24.8 °F 70% 30.19 in 10.0 mi East 5.8 mph - N/A   Clear
11:35 PM 33.8 °F 30.8 °F 26.6 °F 75% 30.19 in 10.0 mi East 3.5 mph - N/A   Clear
11:55 PM 32.0 °F 27.5 °F 24.8 °F 75% 30.19 in 10.0 mi SSW 4.6 mph - N/A   Clear